Charlotte, NC

2:32 PM EST on February 21, 2017 (GMT -0500)
Charlotte-Douglas International

Weather History for KCLT - March, 2013

Change the Weather History Date:

Sunday, March 24, 2013

  Actual Average Record
Temperature  
Mean Temperature 42 °F 53 °F  
Max Temperature 44 °F 66 °F 88 °F (1929)
Min Temperature 39 °F 41 °F 24 °F (1940)
Degree Days  
Heating Degree Days 23 12  
Month to date heating degree days 452 358  
Since 1 July heating degree days 2857 3057  
Cooling Degree Days 0 0  
Month to date cooling degree days 3 0  
Year to date cooling degree days 3 0  
Moisture  
Dew Point 39 °F    
Average Humidity 93    
Maximum Humidity 100    
Minimum Humidity 86    
Precipitation  
Precipitation 0.76 in 0.12 in 1.62 in (1917)
Month to date precipitation 2.82 3.14  
Year to date precipitation 10.57 9.87  
Snow  
Snow 0.00 in 0.00 in 10.30 in (1983)
Month to date snowfall T 0.5  
Since 1 July snowfall 2.7 4.2  
Snow Depth 0.00 in    
Sea Level Pressure  
Sea Level Pressure 29.70 in    
Wind  
Wind Speed 8 mph (NE)    
Max Wind Speed 20 mph    
Max Gust Speed 29 mph    
Visibility 5 miles    
Events Rain    
T = Trace of Precipitation, MM = Missing Value Source: NWS Daily Summary

Daily Weather History Graph

Daily Weather History Graph

Search for Another Location

Airport or City:

Trip Planner

Search our weather history database for the weather conditions in past years. The results will help you decide how hot, cold, wet, or windy it might be!

Date:

Astronomy

Mar. 24, 2013 Rise Set
Actual Time 7:21 AM EDT 7:38 PM EDT
Civil Twilight 6:56 AM EDT 8:04 PM EDT
Nautical Twilight 6:26 AM EDT 8:34 PM EDT
Astronomical Twilight 5:56 AM EDT 9:04 PM EDT
Moon 5:10 PM EDT (3/24) 5:25 AM EDT (3/24)
Length of Visible Light 13h 08m
Length of Day
12h 17m
Waxing Gibbous, 91% of the Moon is Illuminated
Mar 24
Waxing Gibbous
Mar 27
Full
Apr 3
Last Quarter
Apr 10
New
Apr 18
First Quarter

Hourly Weather History & Observations

Time (EDT) Temp. Windchill Dew Point Humidity Pressure Visibility Wind Dir Wind Speed Gust Speed Precip Events Conditions
12:52 AM 42.1 °F 39.2 °F 39.9 °F 92% 29.89 in 7.0 mi North 4.6 mph - N/A   Overcast
1:52 AM 43.0 °F 41.3 °F 39.9 °F 89% 29.91 in 7.0 mi West 3.5 mph - N/A   Overcast
2:52 AM 43.0 °F 39.5 °F 41.0 °F 93% 29.91 in 6.0 mi North 5.8 mph - 0.01 in Rain Light Rain
3:52 AM 43.0 °F 41.3 °F 42.1 °F 97% 29.87 in 4.0 mi North 3.5 mph - 0.04 in Rain Light Rain
4:52 AM 44.1 °F 40.1 °F 42.1 °F 93% 29.82 in 3.0 mi NNE 6.9 mph - 0.06 in Rain Light Rain
5:52 AM 43.0 °F 37.7 °F 42.1 °F 97% 29.80 in 3.0 mi NNE 9.2 mph - 0.15 in Rain Heavy Rain
6:43 AM 42.8 °F 37.0 °F 39.2 °F 87% 29.77 in 5.0 mi NE 10.4 mph - 0.09 in Rain Light Rain
6:52 AM 42.1 °F 37.1 °F 39.9 °F 92% 29.77 in 4.0 mi NE 8.1 mph - 0.10 in Rain Rain
7:08 AM 42.8 °F 38.0 °F 39.2 °F 87% 29.76 in 6.0 mi ENE 8.1 mph - 0.00 in Rain Light Rain
7:52 AM 42.1 °F 36.6 °F 39.9 °F 92% 29.71 in 6.0 mi East 9.2 mph 21.9 mph 0.00 in   Overcast
8:52 AM 42.1 °F 36.1 °F 39.0 °F 89% 29.76 in 3.0 mi North 10.4 mph - 0.01 in Rain Light Rain
9:07 AM 41.0 °F 33.5 °F 39.2 °F 93% 29.78 in 2.0 mi North 13.8 mph - 0.03 in Rain Rain
9:31 AM 41.0 °F 33.9 °F 39.2 °F 93% 29.77 in 1.5 mi North 12.7 mph - 0.10 in Rain Heavy Rain
9:38 AM 41.0 °F 33.5 °F 39.2 °F 93% 29.76 in 1.8 mi NNE 13.8 mph - 0.15 in Rain Rain
9:43 AM 41.0 °F 33.1 °F 39.2 °F 93% 29.73 in 2.0 mi NE 15.0 mph - 0.15 in Rain Light Rain
9:48 AM 42.8 °F 35.1 °F 39.2 °F 87% 29.72 in 2.0 mi NNE 16.1 mph - 0.16 in Rain Light Rain
9:52 AM 42.1 °F 35.7 °F 39.9 °F 92% 29.73 in 2.0 mi NE 11.5 mph 20.7 mph 0.16 in Rain Light Rain
10:43 AM 42.8 °F 35.8 °F 39.2 °F 87% 29.70 in 2.0 mi NE 13.8 mph 18.4 mph 0.00 in   Overcast
10:52 AM 42.1 °F 34.9 °F 39.0 °F 89% 29.69 in 2.0 mi NE 13.8 mph 20.7 mph 0.00 in Rain Light Rain
11:43 AM 41.0 °F 32.8 °F 39.2 °F 93% 29.67 in 1.5 mi NE 16.1 mph - 0.05 in Rain Rain
11:52 AM 41.0 °F 33.1 °F 39.0 °F 93% 29.68 in 1.5 mi NE 15.0 mph 23.0 mph 0.08 in Rain Heavy Rain
12:09 PM 41.0 °F 32.8 °F 39.2 °F 93% 29.65 in 2.0 mi NNE 16.1 mph 23.0 mph 0.03 in Rain Light Rain
12:52 PM 41.0 °F 34.3 °F 39.2 °F 93% 29.65 in 1.5 mi NE 11.5 mph 23.0 mph N/A Rain Rain
1:13 PM 41.0 °F 33.9 °F 39.2 °F 93% 29.66 in 2.0 mi NNE 12.7 mph - 0.04 in Rain Light Rain
1:29 PM 41.0 °F 34.7 °F 39.2 °F 93% 29.65 in 2.0 mi NNE 10.4 mph - 0.06 in Rain Light Rain
1:52 PM 41.0 °F 34.7 °F 39.0 °F 93% 29.66 in 2.0 mi NNE 10.4 mph - 0.06 in Rain Light Rain
2:30 PM 41.0 °F 34.3 °F 39.2 °F 93% 29.64 in 2.0 mi NNE 11.5 mph - 0.02 in Rain Light Rain
2:52 PM 41.0 °F 33.9 °F 39.0 °F 93% 29.61 in 6.0 mi NNE 12.7 mph - 0.02 in   Overcast
3:40 PM 41.0 °F 34.7 °F 37.4 °F 87% 29.63 in 10.0 mi North 10.4 mph - N/A   Overcast
3:52 PM 41.0 °F 34.3 °F 37.9 °F 89% 29.62 in 10.0 mi North 11.5 mph - N/A   Overcast
4:52 PM 39.9 °F 31.1 °F 37.0 °F 89% 29.58 in 10.0 mi NNE 17.3 mph 21.9 mph N/A   Overcast
5:52 PM 39.9 °F 36.7 °F 37.0 °F 89% 29.59 in 10.0 mi NE 4.6 mph - N/A   Overcast
6:52 PM 41.0 °F 37.1 °F 37.0 °F 86% 29.61 in 10.0 mi NE 5.8 mph - N/A   Overcast
7:52 PM 39.9 °F 35.1 °F 37.0 °F 89% 29.60 in 10.0 mi NE 6.9 mph - N/A   Overcast
8:28 PM 39.2 °F - 37.4 °F 93% 29.64 in 5.0 mi Calm Calm - N/A   Overcast
8:52 PM 39.0 °F 33.4 °F 37.9 °F 96% 29.60 in 2.5 mi ENE 8.1 mph - 0.00 in Rain Light Rain
9:12 PM 39.2 °F 35.9 °F 37.4 °F 93% 29.61 in 5.0 mi East 4.6 mph - 0.00 in   Light Drizzle
9:49 PM 39.2 °F 35.0 °F 37.4 °F 93% 29.61 in 8.0 mi East 5.8 mph - 0.00 in   Overcast
9:52 PM 39.0 °F 34.0 °F 37.0 °F 93% 29.62 in 8.0 mi ESE 6.9 mph - 0.00 in   Overcast
10:52 PM 39.0 °F 34.8 °F 36.0 °F 89% 29.60 in 8.0 mi East 5.8 mph - 0.01 in   Light Drizzle
10:59 PM 39.2 °F 35.9 °F 37.4 °F 93% 29.59 in 10.0 mi East 4.6 mph - 0.00 in   Light Drizzle
11:52 PM 39.0 °F - 37.0 °F 93% 29.61 in 10.0 mi Calm Calm - 0.00 in   Light Drizzle